Location: Asheville, NC
(35.6000°N, 82.5500°W)
Time: 17:04:13
(UTC-05:00)

Vanguard 1 Rocket - Pass Details

Date: 18 February 2018
Orbit: 655 x 4222 km, 34.3° (Epoch: 17 February)

Event Time Altitude Azimuth Distance (km) Brightness Sun altitude
Rises 00:25:47 0° 247° (WSW) 7,054 11.9 -65.7°
Enters shadow 00:29:24 - 247° (WSW) 6,455 11.6 -65.8°
Reaches altitude 10° 00:29:51 10° 247° (WSW) 6,382 - -65.8°
Maximum altitude 00:53:27 80° 164° (SSE) 4,252 - -65.9°
Exits shadow 01:07:22 39° 85° (E) 5,146 11.0 -65.5°
Drops below altitude 10° 01:18:05 10° 82° (E) 6,608 11.8 -64.8°
Sets 01:22:24 0° 82° (E) 7,299 12.2 -64.5°
